GW6775 Weather Reports


time (UTC)temp
F
wind
direction
speed
knots
gust
knots
rain 1hr
in
rain 24hr
in
rain mn
in
humidity
%
barometer
mb
20260507205829 65 122 9.6 13.0 0.00 0.04 0.04 24 1015.4
20260507205326 66 153 2.6 13.9 0.00 0.04 0.04 24 1015.6
20260507204822 67 76 2.6 10.4 0.00 0.04 0.04 24 1015.6
20260507204320 67 206 1.7 5.2 0.00 0.04 0.04 25 1015.6
20260507203817 66 103 0.0 5.2 0.00 0.04 0.04 26 1015.9
20260507203315 65 148 1.7 9.6 0.00 0.04 0.04 26 1015.8
20260507202811 66 131 8.7 11.3 0.00 0.04 0.04 26 1015.8
20260507202307 66 146 5.2 6.1 0.00 0.04 0.04 26 1015.9
20260507201802 66 135 7.8 9.6 0.00 0.04 0.04 26 1016.1
20260507201259 66 138 8.7 11.3 0.00 0.04 0.04 27 1016.0
20260507200755 66 128 6.1 11.3 0.00 0.04 0.04 27 1016.1
20260507200251 66 130 5.2 5.2 0.00 0.04 0.04 28 1016.2
20260507195747 65 253 5.2 5.2 0.00 0.04 0.04 28 1016.3
20260507195245 65 273 1.7 3.5 0.00 0.04 0.04 27 1016.3
20260507194742 64 178 2.6 3.5 0.00 0.04 0.04 26 1016.6
20260507194238 64 164 1.7 3.5 0.00 0.04 0.04 28 1016.5
20260507193735 65 190 1.7 6.1 0.00 0.04 0.04 28 1016.7
20260507193231 65 248 1.7 5.2 0.00 0.04 0.04 29 1016.6
20260507192728 65 261 1.7 6.1 0.00 0.04 0.04 28 1016.7
20260507192225 64 107 1.7 4.3 0.00 0.04 0.04 28 1016.8
20260507191721 65 245 2.6 5.2 0.00 0.04 0.04 26 1016.7
20260507191218 64 207 2.6 5.2 0.00 0.04 0.04 30 1016.7
20260507190715 64 282 3.5 9.6 0.00 0.04 0.04 31 1016.8
20260507190213 63 232 2.6 13.0 0.00 0.04 0.04 31 1016.6
20260507185711 63 252 3.5 6.1 0.00 0.04 0.04 32 1016.7
20260507185208 62 233 1.7 12.2 0.00 0.04 0.04 32 1017.2
20260507184705 62 287 5.2 8.7 0.00 0.04 0.04 34 1016.8
20260507184203 61 272 3.5 7.8 0.00 0.04 0.04 33 1017.1
20260507183659 61 156 0.0 14.8 0.00 0.04 0.04 34 1017.1
20260507183156 61 280 7.8 9.6 0.00 0.04 0.04 33 1017.2
20260507182654 61 281 6.1 11.3 0.00 0.04 0.04 33 1017.2
20260507182149 60 59 1.7 4.3 0.00 0.04 0.04 34 1017.2
20260507181646 60 275 3.5 9.6 0.00 0.04 0.04 34 1017.4
20260507181142 61 250 1.7 9.6 0.00 0.04 0.04 35 1017.4
20260507180638 60 282 6.1 10.4 0.00 0.04 0.04 37 1017.2
20260507180136 60 215 3.5 4.3 0.00 0.04 0.04 38 1017.2
20260507175631 59 221 5.2 12.2 0.00 0.04 0.04 37 1017.1
20260507175129 59 276 7.0 11.3 0.00 0.04 0.04 36 1017.2
20260507174626 59 257 2.6 10.4 0.00 0.04 0.04 37 1017.4
20260507174124 60 253 2.6 9.6 0.00 0.04 0.04 38 1017.3
20260507173621 59 171 2.6 7.8 0.00 0.04 0.04 37 1017.3
20260507173118 58 161 2.6 9.6 0.00 0.04 0.04 38 1017.2
20260507172614 58 283 7.0 10.4 0.02 0.04 0.04 37 1017.4
20260507172111 58 292 7.0 9.6 0.02 0.04 0.04 37 1017.5
20260507171606 58 275 6.1 12.2 0.00 0.04 0.04 37 1017.8
20260507171103 58 138 1.7 12.2 0.00 0.04 0.04 37 1017.5
20260507170600 58 199 2.6 9.6 0.02 0.04 0.04 38 1017.5
20260507170057 57 297 10.4 12.2 0.02 0.04 0.04 38 1017.5
20260507165553 57 279 7.0 13.0 0.00 0.04 0.04 37 1017.8
20260507165049 57 284 8.7 9.6 0.02 0.04 0.04 39 1017.8
20260507164546 56 261 2.6 8.7 0.02 0.04 0.04 38 1018.0
20260507164043 56 262 4.3 7.0 0.00 0.03 0.03 40 1018.2
20260507163540 56 168 2.6 6.1 0.02 0.03 0.03 39 1018.0
20260507163038 55 271 3.5 4.3 0.02 0.03 0.03 40 1018.0
20260507162538 55 282 5.2 7.0 0.02 0.03 0.03 38 1018.0
20260507162036 55 279 1.7 7.8 0.02 0.03 0.03 39 1018.0
20260507161532 54 286 2.6 9.6 0.00 0.02 0.02 39 1018.1
20260507161029 54 279 4.3 10.4 0.02 0.02 0.02 38 1018.2
20260507160525 54 289 3.5 8.7 0.00 0.02 0.02 40 1018.5
20260507160021 53 290 6.1 7.8 0.02 0.02 0.02 40 1018.4
20260507155516 53 280 4.3 9.6 0.02 0.02 0.02 40 1018.4
20260507155014 53 192 2.6 7.0 0.00 0.02 0.02 41 1018.2
20260507154511 52 278 0.9 4.3 0.00 0.02 0.02 43 1018.4
20260507154009 52 177 0.9 3.5 0.02 0.02 0.02 44 1018.6
20260507153504 51 306 2.6 9.6 0.00 0.01 0.01 42 1018.6
20260507153000 51 279 2.6 7.8 0.00 0.01 0.01 42 1018.5
20260507152456 51 291 5.2 9.6 0.02 0.01 0.01 41 1018.6
20260507151953 50 290 4.3 8.7 0.00 0.01 0.01 42 1018.5
20260507151449 50 223 6.1 7.0 0.00 0.01 0.01 44 1018.5
20260507150946 50 294 2.6 7.0 0.02 0.01 0.01 43 1018.5
20260507150443 49 274 0.0 5.2 0.02 0.01 0.01 42 1018.5
20260507145939 49 281 3.5 7.8 0.00 0.00 0.00 42 1018.5
20260507145435 49 293 2.6 3.5 0.00 0.00 0.00 43 1018.4
20260507144932 49 278 2.6 5.2 0.00 0.00 0.00 43 1018.5
20260507144429 48 294 2.6 3.5 0.00 0.00 0.00 43 1018.4
20260507143926 48 279 1.7 3.5 0.00 0.00 0.00 42 1018.6
20260507143424 48 229 3.5 5.2 0.00 0.00 0.00 43 1018.6
20260507142920 47 95 1.7 5.2 0.00 0.00 0.00 43 1018.5
20260507142416 46 288 3.5 5.2 0.00 0.00 0.00 43 1018.6
20260507141914 46 92 1.7 2.6 0.00 0.00 0.00 45 1018.5
20260507141409 45 153 0.9 3.5 0.00 0.00 0.00 46 1018.6
20260507140906 45 278 0.0 3.5 0.00 0.00 0.00 47 1018.7
20260507140403 45 250 0.9 4.3 0.00 0.00 0.00 47 1018.5
20260507135901 44 153 2.6 2.6 0.00 0.00 0.00 47 1018.6
20260507135357 44 296 0.9 2.6 0.00 0.00 0.00 46 1018.5
20260507134855 44 178 2.6 5.2 0.00 0.00 0.00 45 1018.6
20260507134351 44 225 2.6 6.1 0.00 0.00 0.00 45 1018.5
20260507133847 44 264 1.7 3.5 0.00 0.00 0.00 46 1018.7
20260507133342 43 266 1.7 3.5 0.00 0.00 0.00 46 1018.4
20260507132842 43 281 1.7 5.2 0.00 0.00 0.00 46 1018.6
20260507132337 43 319 0.9 4.3 0.00 0.00 0.00 46 1018.4
20260507131835 42 345 1.7 4.3 0.00 0.00 0.00 47 1018.5
20260507131331 42 321 1.7 3.5 0.00 0.00 0.00 47 1018.6
20260507130828 41 244 2.6 5.2 0.00 0.00 0.00 48 1018.5
20260507130325 39 290 2.6 3.5 0.00 0.00 0.00 52 1018.5
20260507125824 37 218 1.7 2.6 0.00 0.00 0.00 56 1018.4
20260507125321 36 144 0.0 2.6 0.00 0.00 0.00 60 1018.2
20260507124818 36 124 0.9 3.5 0.00 0.00 0.00 61 1018.2
20260507124314 35 107 3.5 3.5 0.00 0.00 0.00 62 1018.4
20260507123813 35 122 3.5 3.5 0.00 0.00 0.00 62 1018.1
20260507123310 35 130 2.6 3.5 0.00 0.00 0.00 61 1018.1
20260507122806 34 120 0.0 2.6 0.00 0.00 0.00 63 1018.0
20260507122306 34 139 1.7 2.6 0.00 0.00 0.00 62 1018.0
20260507121758 34 355 0.9 2.6 0.02 0.00 0.00 63 1017.9
20260507121253 34 121 3.5 5.2 0.02 0.00 0.00 63 1018.0
20260507120750 34 130 2.6 3.5 0.00 0.00 0.00 63 1018.0
20260507120247 35 279 1.7 4.3 0.00 0.00 0.00 62 1017.9
20260507115743 35 122 4.3 4.3 0.00 0.00 0.00 61 1018.2
20260507115239 34 245 0.9 2.6 0.00 0.00 0.00 63 1017.9
20260507114735 34 214 0.9 3.5 0.00 0.00 0.00 64 1018.0
20260507114232 34 103 1.7 3.5 0.00 0.00 0.00 63 1017.8
20260507113730 35 126 1.7 3.5 0.00 0.00 0.00 62 1017.8
20260507113226 35 109 0.9 1.7 0.00 0.00 0.00 61 1017.9
20260507112724 35 152 1.7 2.6 0.00 0.00 0.00 61 1017.9
20260507112221 34 144 0.0 3.5 0.00 0.00 0.00 62 1017.9
20260507111718 34 194 1.7 2.6 0.00 0.00 0.00 62 1017.8
20260507111215 34 37 2.6 3.5 0.00 0.00 0.00 63 1017.8
20260507110711 35 165 0.9 3.5 0.00 0.00 0.00 61 1018.0
20260507110208 35 129 1.7 2.6 0.00 0.00 0.00 61 1017.8
20260507105705 35 89 2.6 4.3 0.00 0.00 0.00 61 1017.7
20260507105200 35 125 3.5 3.5 0.00 0.00 0.00 61 1017.9
20260507104658 35 353 1.7 3.5 0.00 0.00 0.00 62 1017.9
20260507104154 35 140 0.9 2.6 0.00 0.00 0.00 62 1018.0
20260507103650 34 131 1.7 3.5 0.00 0.00 0.00 62 1018.0
20260507103147 34 322 0.0 2.6 0.00 0.00 0.00 64 1017.9
20260507102643 34 94 1.7 3.5 0.00 0.00 0.00 64 1018.1
20260507102139 34 130 2.6 3.5 0.00 0.00 0.00 63 1017.9
20260507101636 35 115 2.6 2.6 0.00 0.00 0.00 63 1017.9
20260507101132 35 132 2.6 3.5 0.00 0.00 0.00 61 1017.9
20260507100629 36 128 1.7 3.5 0.00 0.00 0.00 59 1018.0
20260507100128 36 266 0.0 4.3 0.00 0.00 0.00 58 1018.2
20260507095625 35 134 0.0 1.7 0.00 0.00 0.00 62 1018.1
20260507095121 35 134 2.6 3.5 0.00 0.00 0.00 61 1018.1
20260507094618 35 126 2.6 2.6 0.00 0.00 0.00 61 1018.4
20260507094115 36 122 1.7 1.7 0.00 0.00 0.00 61 1018.2
20260507093612 35 260 0.9 1.7 0.00 0.00 0.00 61 1018.5
20260507093111 35 112 1.7 2.6 0.00 0.00 0.00 64 1018.4
20260507092607 35 174 0.0 3.5 0.00 0.00 0.00 64 1018.1
20260507092103 35 94 0.9 3.5 0.00 0.00 0.00 65 1018.2
20260507091600 35 87 1.7 1.7 0.00 0.00 0.00 66 1018.1
20260507091056 33 302 1.7 2.6 0.00 0.00 0.00 70 1018.1
20260507090552 33 201 1.7 3.5 0.00 0.00 0.00 71 1018.2
20260507090049 33 121 0.9 2.6 0.00 0.00 0.00 70 1018.1
20260507085546 34 143 1.7 1.7 0.00 0.00 0.00 70 1018.1
20260507085043 34 115 1.7 2.6 0.00 0.00 0.00 70 1018.1
20260507084540 34 58 1.7 2.6 0.00 0.00 0.00 69 1018.4
20260507084037 34 25 0.0 2.6 0.00 0.00 0.00 70 1018.4
20260507083533 33 175 0.0 2.6 0.00 0.00 0.00 72 1018.5
20260507083030 33 112 0.0 1.7 0.00 0.00 0.00 73 1018.2
20260507082526 33 212 0.9 1.7 0.00 0.00 0.00 74 1018.5
20260507082022 33 157 0.9 2.6 0.00 0.00 0.00 74 1018.4
20260507081519 33 134 1.7 2.6 0.00 0.00 0.00 74 1018.5
20260507081016 33 127 0.9 2.6 0.00 0.00 0.00 75 1018.5
20260507080512 33 142 0.9 1.7 0.00 0.00 0.00 76 1018.5
20260507080008 33 91 2.6 3.5 0.00 0.00 0.00 77 1018.8
20260507075504 33 358 2.6 4.3 0.00 0.00 0.00 76 1018.6
20260507075000 35 110 2.6 2.6 0.00 0.00 0.00 73 1019.0
20260507074457 35 315 1.7 3.5 0.00 0.00 0.00 72 1019.1
20260507073955 34 282 1.7 3.5 0.00 0.00 0.00 74 1019.1
20260507073451 34 218 0.9 2.6 0.00 0.00 0.00 77 1019.0
20260507072948 33 108 0.9 2.6 0.00 0.00 0.00 78 1019.1
20260507072445 33 327 0.0 3.5 0.00 0.00 0.00 79 1019.1
20260507071943 33 294 0.9 2.6 0.00 0.00 0.00 78 1019.0
20260507071440 34 104 0.9 2.6 0.00 0.00 0.00 76 1019.0
20260507070936 34 33 0.9 1.7 0.00 0.00 0.00 75 1019.0
20260507070434 34 327 1.7 2.6 0.00 0.00 0.00 76 1019.1
20260507065930 34 331 1.7 3.5 0.00 0.00 0.00 77 1019.1
20260507065427 34 170 0.9 2.6 0.00 0.00 0.00 79 1019.2
20260507064925 34 281 0.0 2.6 0.00 0.00 0.00 80 1019.1
20260507064422 33 216 1.7 2.6 0.00 0.00 0.00 81 1019.1
20260507063920 33 130 0.9 2.6 0.00 0.00 0.00 82 1019.2
20260507063417 33 325 1.7 2.6 0.00 0.00 0.00 83 1019.2
20260507062914 33 193 0.9 3.5 0.00 0.00 0.00 83 1019.3
20260507062411 33 109 1.7 2.6 0.00 0.00 0.00 82 1019.4
20260507061908 33 136 0.0 2.6 0.00 0.00 0.00 82 1019.3
20260507061406 33 109 1.7 2.6 0.00 0.00 0.00 82 1019.3
20260507060905 33 103 0.9 1.7 0.00 0.00 0.00 82 1019.2
20260507060401 33 158 0.9 3.5 0.00 0.00 0.00 82 1019.3
20260507055858 33 227 0.0 2.6 0.00 0.65 0.65 81 1019.3
20260507055352 34 120 1.7 1.7 0.00 0.65 0.65 81 1019.2
20260507054850 34 256 0.0 1.7 0.00 0.65 0.65 81 1019.3
20260507054346 34 190 0.0 3.5 0.00 0.65 0.65 81 1019.3
20260507053843 34 79 0.9 3.5 0.00 0.65 0.65 81 1019.3
20260507053341 34 60 0.0 1.7 0.00 0.65 0.65 81 1019.6
20260507052840 34 136 0.0 1.7 0.00 0.65 0.65 81 1019.3
20260507052336 34 262 0.0 3.5 0.00 0.65 0.65 81 1019.3
20260507051833 34 124 1.7 2.6 0.00 0.65 0.65 80 1019.2
20260507051331 34 119 0.0 2.6 0.00 0.65 0.65 80 1019.2
20260507050828 34 129 1.7 1.7 0.00 0.65 0.65 80 1019.3
20260507050324 35 113 0.0 1.7 0.00 0.65 0.65 79 1019.2
20260507045821 35 145 0.0 2.6 0.00 0.65 0.65 79 1019.2
20260507045318 35 292 0.9 2.6 0.00 0.65 0.65 78 1019.2
20260507044815 35 136 1.7 3.5 0.02 0.65 0.65 78 1019.3
20260507044311 35 171 0.9 1.7 0.02 0.65 0.65 78 1019.4
20260507043807 35 279 0.0 3.5 0.00 0.64 0.64 77 1019.6
20260507043304 35 10 2.6 3.5 0.00 0.64 0.64 77 1019.2
20260507042800 35 197 0.0 2.6 0.00 0.64 0.64 77 1019.4
20260507042255 35 246 0.0 3.5 0.00 0.64 0.64 76 1019.4
20260507041753 36 132 1.7 1.7 0.00 0.64 0.64 76 1019.2
20260507041249 36 249 0.9 2.6 0.00 0.64 0.64 76 1019.3
20260507040747 36 252 0.0 2.6 0.00 0.64 0.64 76 1019.2
20260507040243 36 335 0.0 2.6 0.00 0.64 0.64 76 1019.1
20260507035739 36 153 1.7 1.7 0.00 0.64 0.64 76 1019.1
20260507035234 36 278 0.9 2.6 0.00 0.64 0.64 76 1019.1
20260507034732 36 136 1.7 2.6 0.00 0.64 0.64 76 1019.2
20260507034229 36 142 1.7 1.7 0.00 0.64 0.64 76 1019.1
20260507033727 37 127 2.6 2.6 0.00 0.64 0.64 75 1019.1
20260507033224 37 129 0.0 2.6 0.00 0.64 0.64 75 1019.0
20260507032722 37 284 1.7 1.7 0.00 0.64 0.64 75 1019.1
20260507032217 37 239 0.9 2.6 0.00 0.64 0.64 74 1019.0
20260507031715 37 319 0.0 4.3 0.00 0.64 0.64 74 1019.0
20260507031211 37 155 0.0 2.6 0.00 0.64 0.64 74 1019.1
20260507030708 37 133 0.0 2.6 0.00 0.64 0.64 73 1019.2
20260507030206 37 40 0.0 2.6 0.00 0.64 0.64 73 1018.7
20260507025702 37 306 2.6 3.5 0.00 0.64 0.64 73 1018.8
20260507025159 37 232 0.9 1.7 0.02 0.64 0.64 72 1018.7
20260507024657 37 103 0.0 3.5 0.02 0.64 0.64 71 1018.6
20260507024154 38 135 1.7 2.6 0.00 0.64 0.64 71 1018.8
20260507023650 38 106 0.9 2.6 0.00 0.64 0.64 70 1018.7
20260507023147 38 334 1.7 2.6 0.00 0.64 0.64 69 1018.8
20260507022644 38 254 2.6 2.6 0.00 0.64 0.64 69 1018.8
20260507022140 38 304 0.9 2.6 0.00 0.64 0.64 68 1018.4
20260507021636 39 305 1.7 2.6 0.00 0.64 0.64 67 1018.6
20260507021132 39 310 2.6 2.6 0.02 0.64 0.64 67 1018.7
20260507020631 39 234 0.9 3.5 0.02 0.64 0.64 66 1018.7
20260507020126 39 300 1.7 2.6 0.00 0.63 0.63 66 1018.7
20260507015625 39 285 0.9 1.7 0.00 0.63 0.63 64 1019.0
20260507015122 40 122 0.9 3.5 0.00 0.63 0.63 64 1018.8
20260507014618 40 168 1.7 2.6 0.02 0.63 0.63 63 1018.8
20260507014114 40 249 0.0 3.5 0.02 0.63 0.63 63 1018.7
20260507013611 40 349 1.7 5.2 0.00 0.63 0.63 61 1018.8
20260507013108 41 295 3.5 3.5 0.00 0.63 0.63 60 1018.8
20260507012606 41 139 0.0 2.6 0.02 0.63 0.63 60 1019.0
20260507012101 41 141 1.7 2.6 0.02 0.63 0.63 59 1019.1
20260507011559 42 300 3.5 4.3 0.02 0.63 0.63 58 1019.1
20260507011055 43 27 1.7 3.5 0.02 0.63 0.63 57 1018.8
20260507010550 43 301 2.6 5.2 0.00 0.62 0.62 55 1019.1
20260507010046 44 42 0.0 4.3 0.02 0.62 0.62 53 1019.2
20260507005544 46 5 0.0 3.5 0.02 0.62 0.62 51 1019.1
20260507005040 47 284 1.7 4.3 0.02 0.62 0.62 50 1019.3
20260507004537 48 122 3.5 4.3 0.05 0.62 0.62 49 1019.3
20260507004035 48 148 0.9 3.5 0.05 0.61 0.61 50 1019.1
20260507003530 46 145 0.9 4.3 0.05 0.61 0.61 51 1019.1
20260507003025 46 271 0.0 3.5 0.05 0.61 0.61 49 1019.2
20260507002522 47 332 0.9 4.3 0.05 0.60 0.60 48 1019.1
20260507002018 48 108 1.7 3.5 0.07 0.60 0.60 50 1019.3
20260507001515 46 275 1.7 3.5 0.07 0.59 0.59 50 1019.3
20260507001013 48 283 1.7 4.3 0.07 0.59 0.59 46 1019.4
20260507000508 45 114 2.6 4.3 0.07 0.58 0.58 53 1019.3
20260507000004 47 283 1.7 4.3 0.07 0.57 0.57 49 1019.3
20260506235502 48 129 1.7 3.5 0.09 0.57 0.57 48 1019.4
20260506234957 47 77 1.7 3.5 0.09 0.56 0.56 51 1019.3
20260506234455 47 119 1.7 3.5 0.09 0.56 0.56 49 1019.1
20260506233952 47 133 1.7 3.5 0.09 0.55 0.55 51 1019.3
20260506233449 46 227 1.7 3.5 0.07 0.54 0.54 51 1019.3
20260506232945 46 271 1.7 3.5 0.09 0.53 0.53 49 1019.4
20260506232441 48 155 3.5 4.3 0.09 0.52 0.52 46 1019.6
20260506231937 47 135 0.9 3.5 0.12 0.52 0.52 53 1019.4
20260506231435 45 107 0.9 4.3 0.12 0.51 0.51 54 1019.3
20260506230932 44 111 1.7 4.3 0.09 0.50 0.50 55 1019.6
20260506230428 48 300 1.7 4.3 0.09 0.49 0.49 46 1019.7
20260506225925 48 132 2.6 3.5 0.09 0.48 0.48 48 1019.7
20260506225422 46 124 1.7 3.5 0.09 0.47 0.47 51 1019.9
20260506224919 44 104 0.9 3.5 0.12 0.46 0.46 54 1019.6
20260506224417 43 92 0.9 4.3 0.12 0.45 0.45 58 1019.7
20260506223913 43 126 2.6 3.5 0.09 0.44 0.44 55 1019.7
20260506223408 44 131 2.6 3.5 0.12 0.43 0.43 54 1019.9
20260506222906 45 119 3.5 4.3 0.09 0.42 0.42 54 1019.9
20260506222402 42 129 2.6 3.5 0.12 0.41 0.41 61 1019.9
20260506221859 41 123 1.7 3.5 0.09 0.40 0.40 60 1020.1
20260506221356 40 120 3.5 3.5 0.09 0.39 0.39 63 1020.1
20260506220854 40 190 0.0 4.3 0.09 0.39 0.39 62 1020.1
20260506220349 39 264 1.7 3.5 0.09 0.38 0.38 63 1020.0
20260506215846 39 162 2.6 3.5 0.09 0.37 0.37 62 1020.3
20260506215342 40 280 3.5 4.3 0.07 0.36 0.36 65 1020.1
20260506214838 39 236 0.0 3.5 0.07 0.35 0.35 63 1020.3
20260506214335 39 138 2.6 3.5 0.09 0.35 0.35 64 1020.3
20260506213833 39 131 1.7 5.2 0.09 0.34 0.34 65 1020.4
20260506213330 39 127 2.6 3.5 0.09 0.33 0.33 66 1020.3
20260506212827 40 109 2.6 4.3 0.09 0.32 0.32 66 1020.5
20260506212323 39 130 1.7 3.5 0.07 0.32 0.32 67 1020.6
20260506211818 38 125 3.5 7.8 0.07 0.31 0.31 69 1020.5
20260506211314 38 121 4.3 6.1 0.07 0.30 0.30 71 1020.4
20260506210812 38 115 3.5 7.0 0.07 0.29 0.29 69 1020.6
20260506210309 38 111 2.6 7.0 0.09 0.29 0.29 67 1020.5